Location: Limerick
(52.6800°N, 8.6400°W)
Time: 04:18:29
(UTC+01:00)

Amateur Radio Satellites - All Passes

Search period start: 29 September 2016 03:48
Search period end: 30 September 2016 03:48
Location: Limerick, 52.6800°N, 8.6400°W

Satellite Date Start Highest point End Downlink Frequencies (MHz)
Time Altitude Azimuth
ITUPSAT 1 29 Sep 03:54:05 03:58:27 35° 264° (W) 04:02:52 437.325
MOZHAYETS 4 29 Sep 03:59:17 04:03:48 62° 71° (ENE) 04:08:23
Cosmos 2504 29 Sep 04:04:35 04:10:55 34° 84° (E) 04:17:09 435.465 / 435.565
SWISSCUBE 29 Sep 04:07:15 04:11:11 25° 267° (W) 04:15:10 437.505
AO-7 29 Sep 04:10:16 04:16:59 26° 90° (E) 04:23:40 29.400- 29.500
Oscar 19 29 Sep 04:16:09 04:20:58 41° 296° (WNW) 04:25:45 437.125/150
KKS-1 29 Sep 04:17:36 04:22:00 65° 71° (ENE) 04:26:26 437.445
BEESAT 29 Sep 04:20:30 04:24:10 22° 269° (W) 04:27:52 436.000
AO-85 29 Sep 04:22:44 04:26:40 29° 28° (NNE) 04:30:20 145.980
BEESAT 3 29 Sep 04:25:15 04:28:26 23° 335° (NNW) 04:31:38 437.485
AIST 2 29 Sep 04:37:08 04:40:53 35° 122° (ESE) 04:44:41 435.215
Cosmos 2491 29 Sep 04:37:55 04:45:12 30° 281° (W) 04:52:28 435.465 / 435.565
JAS-2 29 Sep 04:47:25 04:51:48 16° 322° (NW) 04:56:10 435.910
STARS 29 Sep 04:48:31 04:52:52 67° 71° (ENE) 04:57:14 437.465
DANDE 29 Sep 04:55:01 05:00:13 18° 42° (NE) 05:05:29 436.750
CUSAT 1 29 Sep 04:57:34 05:04:04 27° 52° (NE) 05:09:59 437.405
ITAMSAT 1 29 Sep 05:11:06 05:16:21 80° 288° (WNW) 05:21:34 435.822/435.867
PCSat 29 Sep 05:14:34 05:19:37 42° 117° (ESE) 05:24:43 145.827
RS-15 29 Sep 05:17:13 05:29:39 84° 231° (SW) 05:41:53 29.354- 29.394
CUBESAT XI-V 29 Sep 05:21:38 05:26:16 61° 70° (ENE) 05:30:57 437.345
Gurwin Techsat 1B 29 Sep 05:22:24 05:26:47 27° 302° (WNW) 05:31:09 435.225
BEESAT 2 29 Sep 05:23:36 05:26:28 18° 342° (NNW) 05:29:21 435.950
HORYU 2 29 Sep 05:25:12 05:26:16 11° 85° (E) 05:27:21 437.375
MOZHAYETS 4 29 Sep 05:38:01 05:41:23 20° 270° (W) 05:44:49
YUBILEINY 29 Sep 05:44:15 05:52:20 39° 297° (WNW) 06:00:26 435.215
AIST 1 29 Sep 05:46:21 05:50:28 40° 93° (E) 05:54:34
BRITE-PL 29 Sep 05:54:39 05:57:19 15° 83° (E) 05:59:53 437.365/2234.400
KKS-1 29 Sep 05:55:52 05:59:01 19° 270° (W) 06:02:09 437.445
Cosmos 2504 29 Sep 05:56:44 06:03:56 60° 287° (WNW) 06:11:02 435.465 / 435.565
AO-7 29 Sep 06:02:28 06:10:50 89° 292° (WNW) 06:19:10 29.400- 29.500
AO-85 29 Sep 06:03:11 06:07:29 68° 232° (SW) 06:11:27 145.980
BEESAT 3 29 Sep 06:05:10 06:07:23 14° 359° (N) 06:09:38 437.485
AIST 2 29 Sep 06:15:21 06:19:19 44° 323° (NW) 06:23:21 435.215
STARS 29 Sep 06:26:42 06:29:41 18° 270° (W) 06:32:41 437.465
NOAA 18 29 Sep 06:31:25 06:32:25 10° 82° (E) 06:33:26 137.9125
DANDE 29 Sep 06:37:07 06:45:09 50° 66° (ENE) 06:53:01 436.750
CUSAT 1 29 Sep 06:39:21 06:47:23 84° 76° (ENE) 06:54:14 437.405
STRAND 1 29 Sep 06:50:28 06:55:01 34° 62° (ENE) 06:59:36 437.568
ITAMSAT 1 29 Sep 06:51:42 06:55:05 18° 309° (NW) 06:58:27 435.822/435.867
PCSat 29 Sep 06:57:46 07:03:01 49° 319° (NW) 07:08:18 145.827
NOAA 15 29 Sep 06:58:41 07:03:06 26° 92° (E) 07:07:29 137.62
HORYU 2 29 Sep 06:59:10 07:03:38 74° 104° (ESE) 07:08:06 437.375
CUBESAT XI-V 29 Sep 07:00:27 07:04:03 21° 270° (W) 07:07:42 437.345
BEESAT 2 29 Sep 07:03:20 07:05:42 15° 6° (N) 07:08:05 435.950
LilacSat-2 29 Sep 07:14:42 07:17:57 26° 94° (E) 07:21:12 437.200
GOMX 1 29 Sep 07:15:35 07:19:36 31° 94° (E) 07:23:24 467.674
CUTE-I 29 Sep 07:18:25 07:23:10 31° 94° (E) 07:27:54 437.470
Cubesat XI-IV 29 Sep 07:18:38 07:23:23 31° 94° (E) 07:28:06 437.490
AIST 1 29 Sep 07:24:27 07:28:12 27° 293° (WNW) 07:31:58
RS-15 29 Sep 07:30:29 07:40:32 31° 257° (WSW) 07:50:28 29.354- 29.394
BRITE-PL 29 Sep 07:31:40 07:36:41 89° 282° (WNW) 07:41:14 437.365/2234.400
DOVE 4 29 Sep 07:31:40 07:34:50 20° 90° (E) 07:37:56 437.250
BEESAT 3 29 Sep 07:43:20 07:46:25 21° 23° (NNE) 07:49:29 437.485
AO-85 29 Sep 07:46:20 07:46:58 10° 252° (WSW) 07:47:37 145.980
O/OREOS (USA 219) 29 Sep 07:48:42 07:52:48 34° 108° (ESE) 07:56:58 437.305
YUBILEINY 29 Sep 07:48:48 07:52:25 13° 326° (NW) 07:56:02 435.215
HO-68 29 Sep 07:52:13 07:56:01 15° 82° (E) 07:59:48 435.675
PRISM 29 Sep 07:54:22 07:56:46 15° 55° (NE) 07:59:10 437.425
Cosmos 2504 29 Sep 07:54:59 07:59:08 16° 313° (NW) 08:03:17 435.465 / 435.565
AO-7 29 Sep 07:55:51 08:02:46 31° 315° (NW) 08:09:41 29.400- 29.500
AIST 2 29 Sep 07:55:51 07:58:46 18° 345° (NNW) 08:01:43 435.215
NOAA 18 29 Sep 08:08:51 08:14:16 59° 102° (ESE) 08:19:41 137.9125
GONETS M04 29 Sep 08:10:58 08:18:01 28° 78° (ENE) 08:25:04
DANDE 29 Sep 08:20:05 08:28:08 54° 268° (W) 08:35:53 436.750
CUSAT 1 29 Sep 08:22:15 08:28:29 27° 280° (W) 08:34:04 437.405
STRAND 1 29 Sep 08:29:13 08:34:06 45° 261° (W) 08:39:02 437.568
SEEDS 29 Sep 08:31:49 08:33:56 13° 86° (E) 08:36:03 437.485
CUTE 1.7 + AOD 2 29 Sep 08:31:53 08:34:54 18° 89° (E) 08:37:54 437.475
CANX-2 29 Sep 08:33:11 08:36:30 21° 91° (E) 08:39:47 2200.000
CINEMA 3 29 Sep 08:34:52 08:38:17 24° 93° (E) 08:41:45 145.822/145.860
HORYU 2 29 Sep 08:36:37 08:39:43 19° 304° (WNW) 08:42:50 437.375
NOAA 15 29 Sep 08:38:01 08:43:16 60° 292° (WNW) 08:48:28 137.62
BEESAT 2 29 Sep 08:41:14 08:44:45 27° 29° (NNE) 08:48:13 435.950
PCSat 29 Sep 08:43:35 08:47:41 21° 343° (NNW) 08:51:47 145.827
LilacSat-2 29 Sep 08:48:49 08:52:20 35° 293° (WNW) 08:55:52 437.200
AAUSAT CUBESAT 2 29 Sep 08:51:27 08:52:58 12° 85° (E) 08:54:29 437.432
GOMX 1 29 Sep 08:53:39 08:57:47 36° 295° (WNW) 09:01:42 467.674
CUTE-I 29 Sep 08:58:17 09:03:27 50° 294° (WNW) 09:08:37 437.470
Cubesat XI-IV 29 Sep 08:58:30 09:03:42 51° 294° (WNW) 09:08:52 437.490
Cosmos 2499 29 Sep 09:04:07 09:10:35 40° 87° (E) 09:17:05 435.465 / 435.565
DOVE 4 29 Sep 09:08:46 09:12:55 51° 291° (WNW) 09:16:56 437.250
BRITE-PL 29 Sep 09:11:15 09:14:25 17° 307° (NW) 09:17:25 437.365/2234.400
ANTELSAT 29 Sep 09:17:17 09:19:44 15° 55° (NE) 09:22:12 437.575/2403.000
BEESAT 3 29 Sep 09:20:43 09:24:43 70° 44° (NE) 09:28:42 437.485
PRISM 29 Sep 09:27:18 09:31:30 88° 263° (W) 09:35:43 437.425
O/OREOS (USA 219) 29 Sep 09:27:50 09:32:10 41° 308° (NW) 09:36:34 437.305
CUBEBUG 2 29 Sep 09:34:03 09:37:47 29° 95° (E) 09:41:34 437.445
FUNcube-1 29 Sep 09:34:25 09:36:38 14° 87° (E) 09:38:51 145.935
COMPASS 1 29 Sep 09:35:13 09:39:08 36° 96° (E) 09:43:02 437.405
AIST 2 29 Sep 09:35:59 09:38:43 17° 10° (N) 09:41:28 435.215
TIGRISAT 29 Sep 09:36:37 09:39:45 20° 59° (ENE) 09:42:54 435.000
HO-68 29 Sep 09:38:04 09:45:13 64° 104° (ESE) 09:52:18 435.675
AO-7 29 Sep 09:49:19 09:53:02 14° 341° (NNW) 09:56:44 29.400- 29.500
UWE-3 29 Sep 09:49:32 09:53:17 28° 94° (E) 09:57:05 435.000/436.395/437.385
NOAA 18 29 Sep 09:50:00 09:54:40 30° 302° (WNW) 09:59:20 137.9125
JAS-2 29 Sep 09:52:55 09:57:00 16° 38° (NE) 10:01:16 435.910
DELFI C3 29 Sep 10:02:02 10:02:20 10° 84° (E) 10:02:38 145.870
GONETS M04 29 Sep 10:04:58 10:13:51 85° 280° (W) 10:22:48
DANDE 29 Sep 10:05:00 10:09:12 15° 289° (WNW) 10:13:22 436.750
SEEDS 29 Sep 10:05:57 10:10:16 85° 283° (WNW) 10:14:32 437.485
CUTE 1.7 + AOD 2 29 Sep 10:06:53 10:11:09 62° 289° (WNW) 10:15:24 437.475
CANX-2 29 Sep 10:08:27 10:12:40 54° 290° (WNW) 10:16:52 2200.000
CINEMA 3 29 Sep 10:11:42 10:15:39 43° 292° (WNW) 10:19:39 145.822/145.860
Oscar 11 29 Sep 10:11:43 10:15:34 30° 94° (E) 10:19:25 145.826/435.025
ZACube-1 29 Sep 10:15:58 10:19:54 33° 96° (E) 10:23:54 437.345
UNISAT 6 29 Sep 10:16:29 10:20:33 45° 68° (ENE) 10:24:38 437.425
BEESAT 2 29 Sep 10:18:54 10:22:55 70° 230° (SW) 10:26:55 435.950
NOAA 15 29 Sep 10:19:23 10:22:04 14° 313° (NW) 10:24:45 137.62
AAUSAT CUBESAT 2 29 Sep 10:24:54 10:29:08 86° 103° (ESE) 10:33:20 437.432
HUMSAT D 29 Sep 10:27:25 10:28:27 11° 85° (E) 10:29:29 437.325/437.525
PCSat 29 Sep 10:29:16 10:33:03 19° 9° (N) 10:36:51 145.827
QB50P2 29 Sep 10:34:28 10:36:51 15° 55° (NE) 10:39:15 145.880/145.840
POLYITAN 1 29 Sep 10:36:41 10:39:03 15° 55° (NE) 10:41:25 437.675
CUTE-I 29 Sep 10:40:19 10:42:22 12° 315° (NW) 10:44:26 437.470
Cubesat XI-IV 29 Sep 10:40:34 10:42:39 12° 315° (NW) 10:44:44 437.490
ANTELSAT 29 Sep 10:51:36 10:55:52 87° 249° (WSW) 11:00:11 437.575/2403.000
Cosmos 2499 29 Sep 10:56:47 11:03:36 49° 290° (WNW) 11:10:31 435.465 / 435.565
BEESAT 3 29 Sep 10:59:07 11:01:59 19° 244° (WSW) 11:04:50 437.485
PRISM 29 Sep 11:05:50 11:07:27 12° 273° (W) 11:09:04 437.425
FUNcube-1 29 Sep 11:09:08 11:13:28 85° 282° (WNW) 11:17:52 145.935
BUGSAT 1 29 Sep 11:10:20 11:12:04 12° 54° (NE) 11:13:48 437.445
CUBEBUG 2 29 Sep 11:10:33 11:14:30 38° 293° (WNW) 11:18:33 437.445
COMPASS 1 29 Sep 11:10:55 11:14:39 31° 295° (WNW) 11:18:21 437.405
O/OREOS (USA 219) 29 Sep 11:11:02 11:12:53 12° 332° (NNW) 11:14:44 437.305
DUCHIFAT 1 29 Sep 11:11:25 11:14:50 25° 62° (ENE) 11:18:15 145.980
TIGRISAT 29 Sep 11:11:54 11:16:06 60° 259° (WSW) 11:20:20 435.000
AIST 2 29 Sep 11:14:29 11:18:20 34° 33° (NNE) 11:22:12 435.215
QB50P1 29 Sep 11:14:46 11:18:24 29° 64° (ENE) 11:22:03 145.935-145.965
UWE-3 29 Sep 11:25:51 11:29:51 40° 293° (WNW) 11:33:57 435.000/436.395/437.385
HO-68 29 Sep 11:26:14 11:32:38 37° 305° (NW) 11:39:01 435.675
POPSAT HIP 1 29 Sep 11:28:08 11:32:00 37° 66° (ENE) 11:35:53 437.405
JAS-2 29 Sep 11:33:44 11:40:15 48° 61° (ENE) 11:47:27 435.910
DELFI C3 29 Sep 11:33:50 11:37:53 80° 104° (ESE) 11:41:54 145.870
AO-7 29 Sep 11:39:47 11:42:23 12° 9° (N) 11:44:58 29.400- 29.500
SEEDS 29 Sep 11:43:03 11:45:19 14° 305° (NW) 11:47:34 437.485
NANOSAT C BR1 29 Sep 11:43:17 11:47:20 49° 69° (ENE) 11:51:23 145.865
CUTE 1.7 + AOD 2 29 Sep 11:44:56 11:46:10 11° 308° (NW) 11:47:24 437.475
Oscar 11 29 Sep 11:47:44 11:51:48 38° 293° (WNW) 11:55:50 145.826/435.025
ZACube-1 29 Sep 11:52:18 11:56:12 34° 294° (WNW) 12:00:09 437.345
YUBILEINY 29 Sep 11:53:03 11:57:30 14° 37° (NE) 12:01:54 435.215
UNISAT 6 29 Sep 11:54:01 11:57:30 24° 267° (W) 12:01:00 437.425
BEESAT 2 29 Sep 11:58:54 12:00:00 11° 250° (WSW) 12:01:05 435.950
HUMSAT D 29 Sep 12:00:31 12:04:48 78° 103° (ESE) 12:09:05 437.325/437.525
AAUSAT CUBESAT 2 29 Sep 12:01:37 12:04:02 15° 304° (NW) 12:06:28 437.432
GONETS M04 29 Sep 12:04:58 12:12:09 27° 307° (NW) 12:19:25
QB50P2 29 Sep 12:07:52 12:12:05 88° 258° (WSW) 12:16:20 145.880/145.840
POLYITAN 1 29 Sep 12:10:04 12:14:17 88° 255° (WSW) 12:18:30 437.675
PCSat 29 Sep 12:13:03 12:18:03 35° 34° (NE) 12:23:00 145.827
AISAT 29 Sep 12:14:24 12:16:13 12° 86° (E) 12:18:01 437.250
Oscar 19 29 Sep 12:22:12 12:25:53 20° 54° (NE) 12:29:34 437.125/150
ANTELSAT 29 Sep 12:31:41 12:33:18 12° 275° (W) 12:34:55 437.575/2403.000
50 SAT 29 Sep 12:39:27 12:41:54 17° 91° (E) 12:44:19 437.505
BUGSAT 1 29 Sep 12:42:43 12:46:48 79° 72° (ENE) 12:50:52 437.445
DX 1 29 Sep 12:44:31 12:46:57 15° 88° (E) 12:49:23 434.975-435.025
DUCHIFAT 1 29 Sep 12:46:19 12:50:20 45° 261° (W) 12:54:22 145.980
FUNcube-1 29 Sep 12:46:47 12:49:06 14° 305° (NW) 12:51:27 145.935
QB50P1 29 Sep 12:50:11 12:54:06 37° 263° (W) 12:58:02 145.935-145.965
AIST 2 29 Sep 12:52:56 12:57:01 52° 234° (SW) 13:01:06 435.215
Cosmos 2499 29 Sep 12:55:47 12:58:54 13° 317° (NW) 13:02:03 435.465 / 435.565
VELOX 1 29 Sep 12:56:25 13:00:14 28° 94° (E) 13:04:00 145.980
CUBEBUG 1 29 Sep 12:56:52 13:00:52 35° 96° (E) 13:04:50 437.445
ESTCUBE 1 29 Sep 13:02:46 13:07:17 59° 101° (E) 13:11:45 437.505/2401.250
POPSAT HIP 1 29 Sep 13:04:13 13:07:53 29° 265° (W) 13:11:34 437.405
M-CUBED/EXP-1 PRIME 29 Sep 13:08:05 13:09:23 12° 96° (E) 13:10:41 437.505
DELFI C3 29 Sep 13:09:51 13:12:12 15° 303° (WNW) 13:14:31 145.870
HO-68 29 Sep 13:15:35 13:18:27 13° 329° (NNW) 13:21:18 435.675
JAS-2 29 Sep 13:18:47 13:25:18 48° 264° (W) 13:32:34 435.910
NANOSAT C BR1 29 Sep 13:20:03 13:23:19 22° 268° (W) 13:26:37 145.865
ITAMSAT 1 29 Sep 13:20:41 13:22:34 12° 45° (NE) 13:24:27 435.822/435.867
AO-7 29 Sep 13:26:15 13:32:12 23° 36° (NE) 13:38:09 29.400- 29.500
Gurwin Techsat 1B 29 Sep 13:29:59 13:34:42 33° 61° (ENE) 13:39:26 435.225
SPROUT 29 Sep 13:30:59 13:34:56 35° 97° (E) 13:38:49 437.525
HUMSAT D 29 Sep 13:37:12 13:39:55 17° 303° (WNW) 13:42:39 437.325/437.525
QB50P2 29 Sep 13:46:54 13:48:34 12° 274° (W) 13:50:12 145.880/145.840
UKube-1 29 Sep 13:47:57 13:52:06 42° 99° (E) 13:56:11 .
Cosmos 2504 29 Sep 13:48:04 13:53:17 20° 53° (NE) 13:58:38 435.465 / 435.565
YUBILEINY 29 Sep 13:48:56 13:57:14 45° 66° (ENE) 14:05:28 435.215
AISAT 29 Sep 13:48:58 13:53:24 85° 102° (ESE) 13:57:48 437.250
POLYITAN 1 29 Sep 13:49:09 13:50:45 12° 274° (W) 13:52:22 437.675
Cosmos 2491 29 Sep 13:55:57 14:01:43 20° 72° (ENE) 14:07:30 435.465 / 435.565
PCSat 29 Sep 13:56:26 14:01:51 68° 237° (WSW) 14:07:13 145.827
Oscar 19 29 Sep 13:59:23 14:04:35 87° 250° (WSW) 14:09:51 437.125/150
AUBIESAT-1 29 Sep 14:02:24 14:05:31 37° 105° (ESE) 14:08:38 437.475
50 SAT 29 Sep 14:12:06 14:15:42 51° 290° (WNW) 14:19:16 437.505
DX 1 29 Sep 14:19:22 14:23:44 80° 286° (WNW) 14:28:04 434.975-435.025
BUGSAT 1 29 Sep 14:20:41 14:22:43 13° 272° (W) 14:24:46 437.445
VELOX 1 29 Sep 14:32:41 14:36:52 42° 293° (WNW) 14:41:00 145.980
CUBEBUG 1 29 Sep 14:33:14 14:37:09 33° 296° (WNW) 14:41:01 437.445
O/OREOS (USA 219) 29 Sep 14:35:35 14:36:30 10° 24° (NNE) 14:37:26 437.305
ESTCUBE 1 29 Sep 14:40:12 14:43:46 23° 301° (WNW) 14:47:19 437.505/2401.250
M-CUBED/EXP-1 PRIME 29 Sep 14:41:06 14:44:22 61° 295° (WNW) 14:47:36 437.505
TISAT 1 29 Sep 14:45:57 14:49:57 43° 99° (E) 14:53:56 437.305
SO-50 29 Sep 14:46:08 14:46:21 10° 107° (ESE) 14:46:34 436.795
ITAMSAT 1 29 Sep 14:55:57 15:00:56 51° 66° (ENE) 15:05:58 435.822/435.867
SPROUT 29 Sep 15:07:02 15:10:51 32° 295° (WNW) 15:14:37 437.525
Gurwin Techsat 1B 29 Sep 15:09:23 15:14:31 49° 261° (W) 15:19:42 435.225
JAS-2 29 Sep 15:11:08 15:12:28 11° 288° (WNW) 15:13:49 435.910
AO-7 29 Sep 15:15:23 15:23:30 61° 60° (ENE) 15:31:38 29.400- 29.500
UKube-1 29 Sep 15:24:19 15:28:00 28° 298° (WNW) 15:31:39 .
AISAT 29 Sep 15:26:34 15:29:19 16° 305° (NW) 15:32:03 437.250
AUBIESAT-1 29 Sep 15:37:19 15:39:52 20° 304° (NW) 15:42:22 437.475
Cosmos 2504 29 Sep 15:40:41 15:48:04 74° 77° (ENE) 15:55:54 435.465 / 435.565
Oscar 19 29 Sep 15:41:35 15:44:42 16° 274° (W) 15:47:49 437.125/150
PCSat 29 Sep 15:41:42 15:44:17 14° 257° (WSW) 15:46:51 145.827
YUBILEINY 29 Sep 15:45:55 15:54:20 55° 270° (W) 16:02:41 435.215
AIST 1 29 Sep 15:47:22 15:50:40 21° 64° (ENE) 15:53:56
ITUPSAT 1 29 Sep 15:47:56 15:52:28 39° 97° (E) 15:56:58 437.325
Cosmos 2491 29 Sep 15:48:16 15:57:00 73° 95° (E) 16:05:50 435.465 / 435.565
DX 1 29 Sep 15:57:00 15:59:15 14° 307° (NW) 16:01:30 434.975-435.025
SWISSCUBE 29 Sep 16:00:05 16:04:50 54° 101° (E) 16:09:32 437.505
BEESAT 29 Sep 16:12:53 16:17:40 63° 103° (ESE) 16:22:25 436.000
O/OREOS (USA 219) 29 Sep 16:13:13 16:17:24 33° 48° (NE) 16:21:34 437.305
SO-50 29 Sep 16:21:10 16:25:52 55° 127° (SE) 16:30:31 436.795
TISAT 1 29 Sep 16:21:58 16:25:27 26° 298° (WNW) 16:28:54 437.305
HORYU 2 29 Sep 16:27:34 16:30:59 22° 59° (ENE) 16:34:25 437.375
ITAMSAT 1 29 Sep 16:36:09 16:40:40 30° 266° (W) 16:45:12 435.822/435.867
NOAA 15 29 Sep 16:47:30 16:50:42 16° 49° (NE) 16:53:55 137.62
GOMX 1 29 Sep 16:53:30 16:56:15 15° 53° (NE) 16:58:57 467.674
CUTE-I 29 Sep 17:08:26 17:12:04 19° 52° (NE) 17:15:43 437.470
Cubesat XI-IV 29 Sep 17:08:49 17:12:26 19° 52° (NE) 17:16:05 437.490
AO-7 29 Sep 17:08:52 17:16:39 42° 262° (W) 17:24:28 29.400- 29.500
BRITE-PL 29 Sep 17:09:27 17:14:32 36° 63° (ENE) 17:19:28 437.365/2234.400
CUBESAT XI-V 29 Sep 17:15:07 17:15:44 10° 82° (E) 17:16:20 437.345
AIST 1 29 Sep 17:24:25 17:28:38 53° 264° (W) 17:32:46
MOZHAYETS 4 29 Sep 17:25:10 17:29:49 66° 102° (ESE) 17:34:27
ITUPSAT 1 29 Sep 17:25:54 17:30:17 36° 297° (WNW) 17:34:39 437.325
Cosmos 2504 29 Sep 17:34:48 17:40:51 28° 278° (W) 17:47:12 435.465 / 435.565
SWISSCUBE 29 Sep 17:38:22 17:42:21 27° 301° (WNW) 17:46:21 437.505
KKS-1 29 Sep 17:38:56 17:43:19 56° 101° (ESE) 17:47:40 437.445
YUBILEINY 29 Sep 17:45:16 17:49:03 14° 294° (WNW) 17:52:50 435.215
Cosmos 2491 29 Sep 17:46:48 17:54:42 35° 300° (WNW) 18:02:40 435.465 / 435.565
BEESAT 29 Sep 17:51:18 17:55:05 24° 302° (WNW) 17:58:51 436.000
O/OREOS (USA 219) 29 Sep 17:52:34 17:56:59 45° 249° (WSW) 18:01:21 437.305
NOAA 18 29 Sep 18:01:29 18:06:28 37° 61° (ENE) 18:11:27 137.9125
SO-50 29 Sep 18:02:03 18:06:33 39° 327° (NNW) 18:11:00 436.795
LilacSat-2 29 Sep 18:02:16 18:05:35 30° 66° (ENE) 18:08:55 437.200
HORYU 2 29 Sep 18:02:53 18:07:13 58° 258° (WSW) 18:11:37 437.375
STARS 29 Sep 18:08:05 18:12:25 55° 101° (E) 18:16:42 437.465
CUSAT 1 29 Sep 18:08:07 18:12:03 16° 72° (ENE) 18:16:15 437.405
GONETS M04 29 Sep 18:11:31 18:18:00 22° 48° (NE) 18:24:26
NOAA 15 29 Sep 18:24:21 18:29:39 71° 70° (ENE) 18:34:58 137.62
HO-68 29 Sep 18:27:09 18:32:45 26° 47° (NE) 18:38:22 435.675
GOMX 1 29 Sep 18:28:19 18:33:35 68° 72° (ENE) 18:38:34 467.674
DOVE 4 29 Sep 18:41:58 18:46:35 44° 68° (ENE) 18:50:57 437.250
CUTE-I 29 Sep 18:46:07 18:51:26 85° 75° (ENE) 18:56:48 437.470
Cosmos 2499 29 Sep 18:46:16 18:52:06 24° 56° (NE) 18:58:13 435.465 / 435.565
Cubesat XI-IV 29 Sep 18:46:30 18:51:50 85° 73° (ENE) 18:57:12 437.490
BRITE-PL 29 Sep 18:47:23 18:52:52 49° 262° (W) 18:58:13 437.365/2234.400
CUBESAT XI-V 29 Sep 18:49:21 18:54:04 67° 102° (ESE) 18:58:43 437.345
MOZHAYETS 4 29 Sep 19:03:03 19:06:35 22° 302° (WNW) 19:10:06
KKS-1 29 Sep 19:16:05 19:19:35 23° 301° (WNW) 19:23:03 437.445
SEEDS 29 Sep 19:28:47 19:31:57 21° 60° (ENE) 19:35:07 437.485
CUTE 1.7 + AOD 2 29 Sep 19:29:58 19:33:34 27° 63° (ENE) 19:37:12 437.475
CANX-2 29 Sep 19:31:22 19:35:08 31° 65° (ENE) 19:38:55 2200.000
LilacSat-2 29 Sep 19:36:33 19:39:52 29° 265° (W) 19:43:14 437.200
NOAA 18 29 Sep 19:41:51 19:47:05 45° 261° (W) 19:52:19 137.9125
CINEMA 3 29 Sep 19:41:55 19:46:06 45° 69° (ENE) 19:50:08 145.822/145.860
SO-50 29 Sep 19:44:39 19:48:12 20° 351° (N) 19:51:42 436.795
STARS 29 Sep 19:45:03 19:48:28 23° 301° (WNW) 19:51:54 437.465
CUSAT 1 29 Sep 19:45:42 19:52:23 61° 95° (E) 20:00:10 437.405
AAUSAT CUBESAT 2 29 Sep 19:46:43 19:49:35 18° 58° (ENE) 19:52:28 437.432
RS-15 29 Sep 19:48:46 19:58:44 35° 105° (ESE) 20:09:05 29.354- 29.394
DANDE 29 Sep 19:52:14 19:57:21 31° 83° (E) 20:03:35 436.750
Cosmos 2491 29 Sep 19:52:16 19:55:10 12° 330° (NNW) 19:58:06 435.465 / 435.565
NOAA 15 29 Sep 20:05:54 20:09:57 22° 270° (W) 20:14:03 137.62
GONETS M04 29 Sep 20:07:57 20:16:49 69° 75° (ENE) 20:25:33
GOMX 1 29 Sep 20:08:01 20:12:04 22° 270° (W) 20:15:59 467.674
HO-68 29 Sep 20:12:27 20:19:38 84° 69° (ENE) 20:26:51 435.675
DOVE 4 29 Sep 20:20:09 20:24:25 30° 266° (W) 20:28:30 437.250
AO-85 29 Sep 20:26:51 20:27:16 10° 108° (ESE) 20:27:41 145.980
CUBESAT XI-V 29 Sep 20:27:27 20:31:02 22° 302° (WNW) 20:34:34 437.345
CUTE-I 29 Sep 20:28:40 20:32:12 18° 273° (W) 20:35:46 437.470
Cubesat XI-IV 29 Sep 20:29:04 20:32:37 18° 272° (W) 20:36:12 437.490
COMPASS 1 29 Sep 20:31:15 20:35:19 51° 70° (ENE) 20:39:26 437.405
STRAND 1 29 Sep 20:33:18 20:38:09 40° 97° (E) 20:42:59 437.568
FUNcube-1 29 Sep 20:35:23 20:38:33 22° 60° (ENE) 20:41:45 145.935
CUBEBUG 2 29 Sep 20:37:47 20:41:47 47° 69° (ENE) 20:45:47 437.445
Cosmos 2499 29 Sep 20:38:51 20:46:21 86° 80° (E) 20:54:26 435.465 / 435.565
UWE-3 29 Sep 20:52:11 20:56:08 45° 69° (ENE) 21:00:06 435.000/436.395/437.385
DELFI C3 29 Sep 20:52:15 20:54:36 15° 57° (ENE) 20:56:57 145.870
SEEDS 29 Sep 21:03:07 21:07:17 59° 259° (W) 21:11:31 437.485
CUTE 1.7 + AOD 2 29 Sep 21:05:15 21:09:16 41° 262° (W) 21:13:21 437.475
CANX-2 29 Sep 21:07:01 21:10:56 36° 264° (W) 21:14:55 2200.000
Oscar 11 29 Sep 21:11:51 21:15:59 47° 68° (ENE) 21:20:10 145.826/435.025
ZACube-1 29 Sep 21:17:23 21:21:24 52° 70° (ENE) 21:25:28 437.345
CINEMA 3 29 Sep 21:19:52 21:23:27 24° 267° (W) 21:26:57 145.822/145.860
AAUSAT CUBESAT 2 29 Sep 21:20:28 21:24:38 68° 258° (WSW) 21:28:50 437.432
HUMSAT D 29 Sep 21:23:32 21:26:14 17° 57° (ENE) 21:28:56 437.325/437.525
SO-50 29 Sep 21:26:28 21:30:11 22° 15° (NNE) 21:33:50 436.795
CUSAT 1 29 Sep 21:28:18 21:34:52 40° 299° (WNW) 21:42:18 437.405
DANDE 29 Sep 21:33:42 21:39:32 64° 289° (WNW) 21:47:04 436.750
ISS 29 Sep 21:49:42 21:52:40 32° 154° (SSE) 21:55:39 145.825
RS-15 29 Sep 21:58:00 22:09:51 90° 132° (SE) 22:22:17 29.354- 29.394
AO-85 29 Sep 22:01:53 22:06:50 53° 126° (SE) 22:11:28 145.980
HO-68 29 Sep 22:02:31 22:08:13 25° 271° (W) 22:13:57 435.675
GONETS M04 29 Sep 22:05:24 22:13:05 35° 278° (W) 22:20:42
COMPASS 1 29 Sep 22:07:58 22:11:10 21° 269° (W) 22:14:25 437.405
FUNcube-1 29 Sep 22:10:29 22:14:31 52° 260° (W) 22:18:36 145.935
STRAND 1 29 Sep 22:12:36 22:17:20 38° 297° (WNW) 22:22:05 437.568
CUBEBUG 2 29 Sep 22:15:25 22:18:41 22° 268° (W) 22:21:57 437.445
DELFI C3 29 Sep 22:24:54 22:28:55 80° 256° (WSW) 22:32:59 145.870
CUBEBUG 1 29 Sep 22:25:37 22:27:00 11° 51° (NE) 22:28:22 437.445
UWE-3 29 Sep 22:29:31 22:32:50 23° 268° (W) 22:36:10 435.000/436.395/437.385
ESTCUBE 1 29 Sep 22:32:54 22:36:02 19° 56° (ENE) 22:39:11 437.505/2401.250
Cosmos 2499 29 Sep 22:32:57 22:38:40 24° 280° (W) 22:44:42 435.465 / 435.565
PRISM 29 Sep 22:38:06 22:42:15 65° 102° (ESE) 22:46:21 437.425
ANTELSAT 29 Sep 22:38:26 22:40:36 13° 87° (E) 22:42:47 437.575/2403.000
Oscar 11 29 Sep 22:48:50 22:52:21 24° 268° (W) 22:55:55 145.826/435.025
ZACube-1 29 Sep 22:54:57 22:58:02 20° 269° (W) 23:01:08 437.345
HUMSAT D 29 Sep 22:57:17 23:01:22 72° 257° (WSW) 23:05:32 437.325/437.525
TIGRISAT 29 Sep 22:57:41 23:00:50 19° 90° (E) 23:04:00 435.000
SPROUT 29 Sep 22:58:39 22:58:58 10° 50° (NE) 22:59:16 437.525
SO-50 29 Sep 23:07:01 23:11:36 55° 39° (NE) 23:16:03 436.795
UKube-1 29 Sep 23:14:38 23:16:47 14° 53° (NE) 23:18:56 .
CUSAT 1 29 Sep 23:15:38 23:19:25 14° 324° (NW) 23:23:21 437.405
AISAT 29 Sep 23:16:30 23:20:05 24° 60° (ENE) 23:23:39 437.250
DANDE 29 Sep 23:19:38 23:24:11 19° 316° (NW) 23:29:24 436.750
AUBIESAT-1 29 Sep 23:20:12 23:23:03 20° 56° (NE) 23:25:47 437.475
50 SAT 29 Sep 23:21:42 23:24:22 19° 61° (ENE) 23:27:03 437.505
ISS 29 Sep 23:25:39 23:28:55 72° 174° (S) 23:32:11 145.825
UNISAT 6 29 Sep 23:38:16 23:42:30 44° 99° (E) 23:46:48 437.425
AO-85 29 Sep 23:42:47 23:47:29 40° 326° (NW) 23:51:51 145.980
DX 1 29 Sep 23:45:02 23:48:45 28° 62° (ENE) 23:52:29 434.975-435.025
QB50P2 29 Sep 23:49:29 23:50:08 10° 85° (E) 23:50:46 145.880/145.840
POLYITAN 1 29 Sep 23:51:40 23:52:18 10° 85° (E) 23:52:57 437.675
Cosmos 2491 29 Sep 23:54:59 00:00:19 17° 41° (NE) 00:05:36 435.465 / 435.565
CUBEBUG 1 29 Sep 23:58:05 00:02:27 61° 71° (ENE) 00:06:48 437.445
M-CUBED/EXP-1 PRIME 29 Sep 23:58:10 00:02:02 53° 64° (ENE) 00:05:36 437.505
VELOX 1 29 Sep 23:59:00 00:03:18 51° 68° (ENE) 00:07:38 145.980
DELFI C3 30 Sep 00:04:13 00:04:27 10° 275° (W) 00:04:43 145.870
ESTCUBE 1 30 Sep 00:07:48 00:12:20 77° 256° (WSW) 00:16:55 437.505/2401.250
TISAT 1 30 Sep 00:10:38 00:12:10 12° 52° (NE) 00:13:42 437.305
RS-15 30 Sep 00:12:08 00:23:51 52° 342° (NNW) 00:35:55 29.354- 29.394
ANTELSAT 30 Sep 00:13:31 00:17:57 89° 266° (W) 00:22:27 437.575/2403.000
PRISM 30 Sep 00:14:15 00:17:10 19° 302° (WNW) 00:20:02 437.425
JAS-2 30 Sep 00:21:29 00:28:08 29° 87° (E) 00:34:33 435.910
DUCHIFAT 1 30 Sep 00:24:50 00:27:51 19° 91° (E) 00:30:51 145.980
QB50P1 30 Sep 00:28:54 00:32:18 23° 92° (E) 00:35:40 145.935-145.965
SPROUT 30 Sep 00:29:51 00:34:01 56° 70° (ENE) 00:38:13 437.525
TIGRISAT 30 Sep 00:33:35 00:37:55 63° 289° (WNW) 00:42:21 435.000
POPSAT HIP 1 30 Sep 00:42:25 00:46:08 30° 95° (E) 00:49:52 437.405
UKube-1 30 Sep 00:47:48 00:52:07 77° 74° (ENE) 00:56:29 .
SO-50 30 Sep 00:47:49 00:51:53 31° 240° (WSW) 00:55:52 436.795
AISAT 30 Sep 00:51:56 00:56:17 53° 259° (W) 01:00:40 437.250
AUBIESAT-1 30 Sep 00:53:31 00:57:19 51° 253° (WSW) 01:00:54 437.475
50 SAT 30 Sep 00:54:04 00:57:36 47° 261° (W) 01:01:10 437.505
BEESAT 3 30 Sep 00:55:09 00:57:32 16° 114° (ESE) 00:59:56 437.485
NANOSAT C BR1 30 Sep 00:57:12 01:01:10 39° 98° (E) 01:05:07 145.865
ISS 30 Sep 01:02:05 01:05:19 59° 194° (SSW) 01:08:34 145.825
UNISAT 6 30 Sep 01:15:21 01:19:04 27° 297° (WNW) 01:22:50 437.425
DX 1 30 Sep 01:20:37 01:24:47 43° 261° (W) 01:29:00 434.975-435.025
QB50P2 30 Sep 01:22:27 01:26:41 77° 104° (ESE) 01:30:56 145.880/145.840
POLYITAN 1 30 Sep 01:24:38 01:28:52 77° 104° (ESE) 01:33:07 437.675
ITUPSAT 1 30 Sep 01:24:54 01:27:54 17° 53° (NE) 01:30:54 437.325
AO-85 30 Sep 01:25:36 01:29:02 19° 348° (NNW) 01:32:18 145.980
M-CUBED/EXP-1 PRIME 30 Sep 01:33:59 01:36:47 18° 260° (W) 01:39:28 437.505
CUBEBUG 1 30 Sep 01:35:55 01:39:08 19° 270° (W) 01:42:20 437.445
SWISSCUBE 30 Sep 01:36:05 01:39:41 22° 57° (ENE) 01:43:18 437.505
VELOX 1 30 Sep 01:36:28 01:40:03 23° 268° (W) 01:43:38 145.980
TISAT 1 30 Sep 01:42:55 01:47:05 70° 72° (ENE) 01:51:15 437.305
ESTCUBE 1 30 Sep 01:48:21 01:49:57 12° 276° (W) 01:51:33 437.505/2401.250
BEESAT 30 Sep 01:48:33 01:52:22 25° 58° (ENE) 01:56:13 436.000
Cosmos 2491 30 Sep 01:51:11 01:59:49 52° 69° (ENE) 02:08:22 435.465 / 435.565
ANTELSAT 30 Sep 01:51:30 01:54:05 16° 305° (NW) 01:56:42 437.575/2403.000
BEESAT 2 30 Sep 01:53:35 01:56:59 28° 120° (ESE) 02:00:26 435.950
BUGSAT 1 30 Sep 01:53:46 01:57:46 58° 102° (ESE) 02:01:44 437.445
DUCHIFAT 1 30 Sep 01:59:47 02:03:54 57° 290° (WNW) 02:08:01 145.980
QB50P1 30 Sep 02:04:15 02:08:18 47° 292° (WNW) 02:12:21 145.935-145.965
Oscar 19 30 Sep 02:05:32 02:09:28 21° 90° (E) 02:13:22 437.125/150
JAS-2 30 Sep 02:06:00 02:13:57 83° 288° (WNW) 02:21:35 435.910
SPROUT 30 Sep 02:07:10 02:10:19 20° 269° (W) 02:13:28 437.525
TIGRISAT 30 Sep 02:12:23 02:13:50 11° 308° (NW) 02:15:16 435.000
POPSAT HIP 1 30 Sep 02:18:07 02:22:00 36° 294° (WNW) 02:25:52 437.405
UKube-1 30 Sep 02:26:11 02:28:43 15° 271° (W) 02:31:16 .
RS-15 30 Sep 02:27:25 02:39:19 51° 15° (NNE) 02:51:17 29.354- 29.394
BEESAT 3 30 Sep 02:30:44 02:34:40 83° 314° (NW) 02:38:39 437.485
NANOSAT C BR1 30 Sep 02:33:11 02:36:48 28° 297° (WNW) 02:40:24 145.865
ISS 30 Sep 02:38:50 02:41:24 21° 213° (SSW) 02:43:59 145.825
MOZHAYETS 4 30 Sep 02:57:08 03:00:31 21° 58° (ENE) 03:03:54
YUBILEINY 30 Sep 02:57:52 03:05:48 40° 84° (E) 03:13:41 435.215
QB50P2 30 Sep 02:59:18 03:02:00 17° 303° (WNW) 03:04:43 145.880/145.840
ITUPSAT 1 30 Sep 03:00:17 03:05:04 85° 72° (ENE) 03:09:54 437.325
POLYITAN 1 30 Sep 03:01:29 03:04:11 17° 303° (WNW) 03:06:54 437.675
ITAMSAT 1 30 Sep 03:05:05 03:06:26 11° 83° (E) 03:07:46 435.822/435.867
AO-85 30 Sep 03:07:38 03:11:00 20° 13° (NNE) 03:14:10 145.980
KKS-1 30 Sep 03:07:51 03:10:52 18° 56° (NE) 03:13:53 437.445
SWISSCUBE 30 Sep 03:12:18 03:17:03 70° 257° (WSW) 03:21:51 437.505
AO-7 30 Sep 03:13:35 03:15:38 11° 77° (ENE) 03:17:40 29.400- 29.500
Gurwin Techsat 1B 30 Sep 03:19:12 03:24:17 43° 98° (E) 03:29:20 435.225
TISAT 1 30 Sep 03:20:38 03:23:13 16° 271° (W) 03:25:47 437.305
BEESAT 30 Sep 03:25:07 03:29:50 59° 258° (WSW) 03:34:35 436.000
BUGSAT 1 30 Sep 03:29:55 03:32:48 19° 301° (WNW) 03:35:41 437.445
BEESAT 2 30 Sep 03:30:46 03:34:38 49° 320° (NW) 03:38:34 435.950
STARS 30 Sep 03:35:53 03:38:45 17° 56° (NE) 03:41:36 437.465
